Regional Weather Roundup
Issued by NWS

Home | Current Version | Previous Version | Text Only | Print | Product List | Glossary Off
Versions: 1 2 3 4 5 6 7 8 9 10 11 12 13 14 15 16 17 18 19 20 21 22 23 24 25 26 27 28 29 30 31 32 33 34 35 36 37 38 39 40 41 42 43 44 45 46 47 48 49 50

000
ASUS43 KMKX 172221
RWRWI

WISCONSIN REGIONAL WEATHER ROUNDUP
NATIONAL WEATHER SERVICE MILWAUKEE/SULLIVAN WI
400 PM CST WED DEC 17 2014

NOTE: "FAIR" INDICATES FEW OR NO CLOUDS BELOW 12,000 FEET WITH NO
SIGNIFICANT WEATHER AND/OR OBSTRUCTIONS TO VISIBILITY.

WIZ001-002-006>008-014>016-023>028-172300-
NORTHWEST WISCONSIN

CITY           SKY/WX    TMP DP  RH WIND       PRES   REMARKS
SUPERIOR ARPT  PTCLDY    20  13  73 W5        30.32R WCI  13
ASHLAND        CLOUDY    23  19  85 N8        30.28R WCI  14
HAYWARD        LGT SNOW  19  11  70 NW3       30.27R
SIREN          CLOUDY    18  10  69 N3        30.30S
CUMBERLAND     FLURRIES  18  10  73 N6        30.27R WCI   9
RICE LAKE      MOCLDY    19  10  70 NW5       30.29R WCI  12
CHETEK         MOCLDY    18  10  73 CALM      30.28S
LADYSMITH      FLURRIES  21  13  72 NW8       30.26R WCI  11
EAU CLAIRE     PTCLDY    18   9  68 N5        30.28R WCI  11
MENOMONIE      CLOUDY    19  11  69 NW8       30.29S WCI   9
NEW RICHMOND   CLOUDY    17  10  75 N7        30.29S WCI   8
OSCEOLA        PTCLDY    19  11  71 N5        30.33S WCI  12
$$

WIZ003>005-009-010-017-018-172300-
NORTH CENTRAL WISCONSIN

CITY           SKY/WX    TMP DP  RH WIND       PRES   REMARKS
MANITOWISH WTR CLOUDY    19  18  95 NW8       30.18R WCI   9
ARBOR VITAE    CLOUDY    22  19  87 NW7       30.17R WCI  13
WOODRUFF       CLOUDY    22  19  87 NW7       30.17R WCI  13
RHINELANDER    CLOUDY    20  15  81 W9        30.16R WCI   9
EAGLE RIVER    CLOUDY    22  17  80 N15       30.15R WCI   9
LAND O LAKES   CLOUDY    22  19  86 N9        30.16R WCI  12
PHILLIPS       LGT SNOW  19  14  82 NW5       30.21R WCI  12
TOMAHAWK       CLOUDY    20  15  79 NW9       30.19R WCI  10
MEDFORD        CLOUDY    18  11  74 NW8       30.20S WCI   8
MERRILL        CLOUDY    22  14  71 NW9       30.19R WCI  12
$$

WIZ029-030-035-036-043>047-172300-
CENTRAL WISCONSIN

CITY           SKY/WX    TMP DP  RH WIND       PRES   REMARKS
WAUSAU         CLOUDY    21  13  71 NW8       30.19R WCI  11
MOSINEE        FLURRIES  19  16  86 W13G18    30.21R WCI   7
MARSHFIELD     PTCLDY    19  11  70 NW12      30.22R WCI   7
STEVENS POINT  PTCLDY    19  10  68 NW7       30.22S WCI  10
WAUPACA        CLOUDY    26  14  60 W10       30.22R WCI  16
WAUTOMA        PTCLDY    21  12  68 NW8       30.24R WCI  12
WISC RAPIDS    PTCLDY    19  11  70 NW9       30.24S WCI   8
CAMP DOUGLAS   CLOUDY    19  18  93 NW13      30.25R WCI   7
$$

WIZ011>013-019>022-031-037>040-048>050-172300-
NORTHEAST WISCONSIN

CITY           SKY/WX    TMP DP  RH WIND       PRES   REMARKS
ANTIGO         CLOUDY    21  16  79 NW13      30.16R WCI   9
SHAWANO        CLOUDY    27  17  63 NW7       30.19R WCI  20
OCONTO         CLOUDY    27  18  69 W7        30.16R WCI  19
STURGEON BAY   CLOUDY    27  16  63 W12       30.15R WCI  16
GREEN BAY      CLOUDY    26  16  65 W13       30.18R WCI  15
MANITOWOC      PTCLDY    26  18  71 W16       30.18R WCI  14
APPLETON       MOCLDY    25  12  58 W15       30.20R WCI  12
CLINTONVILLE   CLOUDY    27  14  59 NW9       30.20R WCI  17
OSHKOSH        CLEAR     23  14  68 W16G22    30.20R WCI  10
$$

WIZ032>034-041-042-053>061-172300-
SOUTHWEST WISCONSIN

CITY           SKY/WX    TMP DP  RH WIND       PRES   REMARKS
LA CROSSE      CLOUDY    23  12  62 N8        30.28S WCI  14
SPARTA         FLURRIES  20  13  75 NW7       30.28S WCI  11
VIROQUA        PTCLDY    20  14  78 N8        30.22S WCI  10
BOSCOBEL       CLEAR     25  13  60 NW5       30.26S WCI  19
PRAIRIE DU CHI CLEAR     25  14  62 NW7       30.27R WCI  17
PLATTEVILLE    MOCLDY    23  16  76 CALM      30.25R
$$

WIZ056-057-062-063-064-067-068-172300-
SOUTH CENTRAL WISCONSIN

CITY           SKY/WX    TMP DP  RH WIND       PRES   REMARKS
REEDSBURG      CLOUDY    22  15  73 N8        30.23S WCI  12
BARABOO/DELLS  CLOUDY    22  14  70 NW8       30.22F WCI  13
LONE ROCK      MOCLDY    27  14  58 W8        30.25S WCI  19
MINERAL POINT  MOCLDY    23  18  80 NW6       30.22R WCI  16
MADISON        PTCLDY    23  14  68 NW8       30.22S WCI  14
MIDDLETON      CLOUDY    24  16  70 NW9       30.22S WCI  15
WATERTOWN      MOCLDY    23  15  72 NW12      30.21S WCI  11
MONROE         CLOUDY    23  18  80 W8        30.22R WCI  14
JANESVILLE     MOCLDY    27  16  63 NW9       30.21F WCI  17
$$

WIZ051-052-058>065-066-070>072-172300-
SOUTHEAST WISCONSIN

CITY           SKY/WX    TMP DP  RH WIND       PRES   REMARKS
MILWAUKEE      CLOUDY    26  14  60 NW14G23   30.21R WCI  14
WAUKESHA       CLOUDY    23  16  74 W13G23    30.21R WCI  11
MILWAUKEE/TIMM CLOUDY    25  16  68 W16       30.21R WCI  12
RACINE         CLOUDY    26  16  65 NW12      30.22R WCI  16
BURLINGTON     CLOUDY    24  16  72 NW12      30.21S WCI  13
KENOSHA        CLOUDY    25  15  66 W13       30.21R WCI  14
FOND DU LAC    PTCLDY    23  14  68 NW14      30.21R WCI  11
SHEBOYGAN      PTCLDY    24  14  65 NW13G21   30.19R WCI  12
WEST BEND      FLURRIES  25  16  68 W13       30.20R WCI  13
JUNEAU         CLOUDY    22  14  73 NW12G17   30.22S WCI  10
$$

LSZ147-162-172300-
LAKE SUPERIOR

STATION/POSITION TIME  TEMP    WIND        PRES    WAVE
                       AIR SEA DIR/SP/G            HT/PER
                 (UTC) (F)     (DEG/KT/KT) (MB)    (FT/S)
DEVILS ISLAND    2200   25     350/  8/  9 1026.8R
PORT WING        2100   24     320/  7/ 10 1025.7
SAXON HARBOR     2100   26      20/  8/ 13 1024.4R
$$

LMZ867-665-643>646-172300-
LAKE MICHIGAN

STATION/POSITION TIME  TEMP    WIND        PRES    WAVE
                       AIR SEA DIR/SP/G            HT/PER
                 (UTC) (F)     (DEG/KT/KT) (MB)    (FT/S)
CHAMBERS ISLAND  2100   29     300/  6/ 11 1019.6R
NORTHPORT PIER   2109   30     310/ 18/ 26 1019.0R
SISTER BAY       2143          330/ 22/ 25   N/A
ALGOMA LAKESHORE 2114          300/ 10/ 13   N/A
KEWAUNEE LAKESHO 2200   26     300/ 12/ 15 1020.4R
SHEBOYGAN LAKESH 2200   25 35  290/ 17/ 20 1023.5R
PORT WASHINGTON  2140   26     290/  9/ 15 1023.4R
MILWAUKEE LAKESH 2200   26     300/ 12/ 18   N/A
KENOSHA   LAKESH 2200   26     290/ 13/ 15 1023.0R
$$

TC  - TEMPERATURE IN CELSIUS
VSB - VISIBILITY IN STATUTE MILES
WCI - WIND CHILL INDEX
HX  - HEAT INDEX




USA.gov is the U.S. government's official web portal to all federal, state and local government web resources and services.